Flag for Niger Weather past 2 weeks in Niamey, Niger

Now
91 °F

Sunny.


Feels Like: 87 °F
Forecast: 65 / 94 °F
Wind: 7 mph from East

Location: Niamey-Aero

Current Time: Dec 20, 2014 at 6:23:21 PM

Latest Report: Dec 20, 2014 at 5:00 PM


Visibility: 10 mi

Pressure: 29.89 "Hg

Humidity: 8%

Dew point: 21 °F

Location of NiameyLocation

Historic Weather in Niamey — Graph

°F

Niamey temperature yesterday

Maximum temperature yesterday: 88 °F (at 2:00 PM)
Minimum temperature yesterday: 70 °F (at 6:00 AM)
Average temperature yesterday: 78 °F

Past Weeks' High & Low Weather Summary

 TemperatureHumidityPressure
High99 °F (Dec 6, 3:00 PM)43% (Dec 10, 7:00 AM)30.04 "Hg (Dec 10, 7:00 AM)
Low61 °F (Dec 12, 7:00 AM)6% (Dec 7, 3:00 PM)29.80 "Hg (Dec 9, 4:00 PM)
Average79 °F16%29.92 "Hg
* Reported Dec 5 5:00 PM — Dec 20 5:00 PM, Niamey, Weather by CustomWeather, © 2014

Note: Actual official high and low records may vary slightly from our data, if they occured in-between our weather recording intervals... More about our weather records

Advertising

Niamey weather history for previous 24 hours

 ConditionsComfort  
Time TempWeatherWind HumidityBarometerVisibility
5:00 PM
Dec 20
91 °FSunny.7 mph8%29.89 "Hg10 mi
4:00 PM91 °FSunny.7 mph8%29.89 "Hg10 mi
3:00 PM90 °FPassing clouds.8 mph7%29.92 "HgN/A
2:00 PM90 °FSunny.9 mph7%29.95 "Hg10 mi
1:00 PM88 °FPassing clouds.10 mph8%29.98 "HgN/A
12:00 PM84 °FPassing clouds.13 mph8%30.01 "HgN/A
11:00 AM81 °FClear.15 mph10%30.01 "Hg5 mi
10:00 AM77 °FClear.13 mph11%30.04 "Hg4 mi
9:00 AM72 °FClear.10 mph15%30.01 "Hg4 mi
8:00 AM66 °FClear.7 mph21%29.98 "Hg5 mi
7:00 AM66 °FClear.6 mph22%29.95 "Hg5 mi
6:00 AM64 °FClear.6 mph26%29.95 "Hg5 mi
5:00 AM66 °FClear.5 mph22%29.95 "Hg5 mi
4:00 AM68 °FClear.6 mph23%29.95 "Hg5 mi
3:00 AM70 °FClear.6 mph21%29.95 "Hg5 mi
2:00 AM72 °FClear.7 mph19%29.98 "Hg5 mi
1:00 AM73 °FClear.7 mph16%29.98 "Hg5 mi
12:00 AM73 °FClear.7 mph17%29.98 "Hg5 mi
11:00 PM
Dec 19
73 °FClear.5 mph17%30.01 "Hg5 mi
10:00 PM75 °FClear.6 mph16%30.01 "Hg4 mi
9:00 PM77 °FDuststorm.5 mph15%29.98 "Hg3 mi
8:00 PM81 °FDuststorm.6 mph13%29.98 "Hg3 mi
7:00 PM82 °FDuststorm.7 mph11%29.95 "Hg3 mi
6:00 PM86 °FClear.7 mph9%29.92 "Hg5 mi
Weather by CustomWeather, © 2014

See weather overviewHow to use our weather pages